Regional Weather Roundup
Issued by NWS Little Rock, AR

Home | Current Version | Previous Version | Text Only | Print | Product List | Glossary On
Versions: 1 2 3 4 5 6 7 8 9 10 11 12 13 14 15 16 17 18 19 20 21 22 23 24 25 26 27 28 29 30 31 32 33 34 35 36 37 38 39 40 41 42 43 44 45 46 47 48 49 50
000
ASUS44 KLZK 300105
RWRLZK

WEATHER ROUNDUP FOR ARKANSAS
NATIONAL WEATHER SERVICE LITTLE ROCK AR
800 PM CDT FRI APR 29 2016

NOTE: "FAIR" INDICATES FEW OR NO CLOUDS BELOW 12,000 FEET WITH NO
SIGNIFICANT WEATHER AND/OR OBSTRUCTIONS TO VISIBILITY.

ARZ001-003-010-029-300200-
NORTHWEST ARKANSAS

CITY           SKY/WX    TMP DP  RH WIND       PRES   REMARKS
FAYETTEVILLE   LGT RAIN  65  64  97 S13G21    29.71R FOG
FORT SMITH     RAIN      66  63  90 E9        29.69R
HARRISON       FOG       59  58  96 SE12      29.78F VSB 1
BENTONVILLE    CLOUDY    63  57  82 SE10G17   29.72R
ROGERS         TSTM      61  60  97 E15       29.72R
SILOAM SPGS    CLOUDY    64  55  72 SE13      29.71R
HIGHFILL       LGT RAIN  65  64  97 SE12      29.71R
SPRINGDALE     LGT RAIN  64  63  94 S9        29.72F
$$

ARZ004-005-016-300200-
NORTH CENTRAL ARKANSAS

CITY           SKY/WX    TMP DP  RH WIND       PRES   REMARKS
BATESVILLE     CLOUDY    64  61  88 E6        29.84R
FLIPPIN        CLOUDY   N/A N/A N/A SE6       29.77S
MTN HOME       LGT RAIN  60  59  96 SE8       29.80S
$$

ARZ040-041-300200-
WEST CENTRAL ARKANSAS

CITY           SKY/WX    TMP DP  RH WIND       PRES   REMARKS
MENA           CLOUDY    68  68 100 CALM      29.73R
MOUNT IDA      HVY RAIN  68  65  90 SE7       29.74R FOG
$$

ARZ009-017-025-026-028-300200-
NORTHEAST ARKANSAS

CITY           SKY/WX    TMP DP  RH WIND       PRES   REMARKS
CORNING          N/A     64  63  94 E8        29.87S
JONESBORO      CLOUDY    65  62  90 E7        29.84S
NEWPORT        CLOUDY    66  65  97 E7        29.84S
WALNUT RIDGE   CLOUDY    64  59  82 E8        29.85S
BLYTHEVILLE    CLOUDY    66  59  78 SE9       29.86S
$$

ARZ022-023-033-042-044-300200-
CENTRAL ARKANSAS

CITY           SKY/WX    TMP DP  RH WIND       PRES   REMARKS
LITTLE ROCK    TSTM      69  65  86 W14G22    29.81R
N LITTLE ROCK    N/A     67  65  94 SW6       29.80R
JACKSONVILLE   LGT RAIN  68  67  99 SW6       29.80R
SEARCY         CLOUDY    66  64  93 VRB3      29.82S
HOT SPRINGS    TSTM      68  66  93 E7        29.77F FOG
RUSSELLVILLE   RAIN      66  65  96 VRB6      29.77R FOG
$$

ARZ036-300200-
EAST ARKANSAS

CITY           SKY/WX    TMP DP  RH WIND       PRES   REMARKS
WEST MEMPHIS   CLOUDY    65  63  93 SE14      29.82S
$$

ARZ050-053-066-070-073-300200-
SOUTHWEST ARKANSAS

CITY           SKY/WX    TMP DP  RH WIND       PRES   REMARKS
ARKADELPHIA    TSTM      68  68 100 E5        29.78F VSB 1
CAMDEN         RAIN      66  64  94 NE6       29.75F
TEXARKANA      TSTM      67  65  93 E13G21    29.67R FOG
EL DORADO      CLOUDY    68  65  90 E7        29.76F
DE QUEEN       LGT RAIN  69  68  96 E13G24    29.65S
$$

ARZ056-057-069-300200-
SOUTHEAST ARKANSAS

CITY           SKY/WX    TMP DP  RH WIND       PRES   REMARKS
PINE BLUFF     LGT RAIN  67  65  93 S3        29.81S
STUTTGART      CLOUDY    68  63  83 S10       29.81R
MONTICELLO     CLOUDY    69  67  93 E7        29.78S

$$





USA.gov is the U.S. government's official web portal to all federal, state and local government web resources and services.